| time (UTC) | temp C | wind direction | speed KPH | gust KPH | rain 1hr cm | rain 24hr cm | rain mn cm | humidity % | barometer mb |
| 20260510142101 | 17 | 350 | 8.0 | 16.1 | 0.00 | 0.00 | 0.00 | 64 | 1012.7 |
| 20260510141557 | 17 | 352 | 16.1 | 19.3 | 0.00 | 0.00 | 0.00 | 63 | 1012.5 |
| 20260510141056 | 17 | 13 | 14.5 | 17.7 | 0.00 | 0.00 | 0.00 | 64 | 1012.4 |
| 20260510140551 | 17 | 34 | 8.0 | 20.9 | 0.00 | 0.00 | 0.00 | 66 | 1012.5 |
| 20260510140051 | 17 | 335 | 14.5 | 20.9 | 0.00 | 0.00 | 0.00 | 64 | 1012.3 |
| 20260510135547 | 17 | 340 | 12.9 | 19.3 | 0.00 | 0.00 | 0.00 | 64 | 1012.1 |
| 20260510135043 | 17 | 4 | 8.0 | 22.5 | 0.00 | 0.00 | 0.00 | 65 | 1012.1 |
| 20260510134540 | 17 | 33 | 11.3 | 17.7 | 0.00 | 0.00 | 0.00 | 67 | 1012.2 |
| 20260510134037 | 17 | 354 | 8.0 | 20.9 | 0.00 | 0.00 | 0.00 | 68 | 1012.1 |
| 20260510133533 | 17 | 339 | 14.5 | 20.9 | 0.00 | 0.00 | 0.00 | 70 | 1012.1 |
| 20260510133029 | 17 | 36 | 14.5 | 14.5 | 0.00 | 0.00 | 0.00 | 72 | 1011.6 |
| 20260510132526 | 16 | 8 | 9.7 | 16.1 | 0.00 | 0.00 | 0.00 | 73 | 1011.7 |
| 20260510132023 | 16 | 19 | 6.4 | 20.9 | 0.00 | 0.00 | 0.00 | 74 | 1011.7 |
| 20260510131521 | 16 | 18 | 6.4 | 17.7 | 0.00 | 0.00 | 0.00 | 75 | 1011.7 |
| 20260510131018 | 16 | 345 | 20.9 | 24.1 | 0.00 | 0.00 | 0.00 | 74 | 1011.7 |
| 20260510130514 | 16 | 338 | 9.7 | 14.5 | 0.00 | 0.00 | 0.00 | 74 | 1011.7 |
| 20260510130012 | 16 | 10 | 6.4 | 12.9 | 0.00 | 0.00 | 0.00 | 75 | 1011.7 |
| 20260510125508 | 16 | 355 | 6.4 | 16.1 | 0.00 | 0.00 | 0.00 | 75 | 1011.5 |
| 20260510125004 | 16 | 317 | 8.0 | 19.3 | 0.00 | 0.00 | 0.00 | 76 | 1011.6 |
| 20260510124501 | 16 | 13 | 9.7 | 14.5 | 0.00 | 0.00 | 0.00 | 75 | 1011.5 |
| 20260510123958 | 16 | 355 | 6.4 | 14.5 | 0.00 | 0.00 | 0.00 | 75 | 1011.5 |
| 20260510123452 | 16 | 356 | 6.4 | 16.1 | 0.00 | 0.00 | 0.00 | 74 | 1011.3 |
| 20260510122949 | 16 | 348 | 3.2 | 14.5 | 0.00 | 0.00 | 0.00 | 75 | 1011.3 |
| 20260510122444 | 16 | 343 | 8.0 | 12.9 | 0.00 | 0.00 | 0.00 | 74 | 1011.3 |
| 20260510121941 | 16 | 356 | 4.8 | 8.0 | 0.00 | 0.00 | 0.00 | 74 | 1011.1 |
| 20260510121438 | 16 | 10 | 6.4 | 9.7 | 0.00 | 0.00 | 0.00 | 73 | 1011.2 |
| 20260510120936 | 15 | 356 | 6.4 | 11.3 | 0.00 | 0.00 | 0.00 | 74 | 1011.1 |
| 20260510120433 | 15 | 2 | 9.7 | 9.7 | 0.00 | 0.00 | 0.00 | 73 | 1010.9 |
| 20260510115929 | 15 | 342 | 9.7 | 9.7 | 0.00 | 0.00 | 0.00 | 72 | 1010.9 |
| 20260510115426 | 15 | 7 | 8.0 | 9.7 | 0.00 | 0.00 | 0.00 | 72 | 1010.9 |
| 20260510114921 | 15 | 11 | 6.4 | 8.0 | 0.00 | 0.00 | 0.00 | 72 | 1010.8 |
| 20260510114419 | 16 | 331 | 3.2 | 9.7 | 0.00 | 0.00 | 0.00 | 71 | 1010.8 |
| 20260510113914 | 16 | 335 | 4.8 | 9.7 | 0.00 | 0.00 | 0.00 | 70 | 1010.8 |
| 20260510113410 | 16 | 318 | 11.3 | 12.9 | 0.00 | 0.00 | 0.00 | 68 | 1010.5 |
| 20260510112908 | 16 | 357 | 6.4 | 8.0 | 0.00 | 0.00 | 0.00 | 68 | 1010.7 |
| 20260510112405 | 16 | 339 | 1.6 | 6.4 | 0.00 | 0.00 | 0.00 | 67 | 1010.5 |
| 20260510111901 | 16 | 224 | 0.0 | 1.6 | 0.00 | 0.00 | 0.00 | 65 | 1010.5 |
| 20260510111357 | 16 | 316 | 1.6 | 3.2 | 0.00 | 0.00 | 0.00 | 64 | 1010.5 |
| 20260510110852 | 16 | 220 | 0.0 | 6.4 | 0.00 | 0.00 | 0.00 | 62 | 1010.3 |
| 20260510110349 | 16 | 317 | 3.2 | 4.8 | 0.00 | 0.00 | 0.00 | 61 | 1010.2 |
| 20260510105845 | 16 | 333 | 0.0 | 6.4 | 0.00 | 0.00 | 0.00 | 62 | 1010.1 |
| 20260510105345 | 16 | 280 | 4.8 | 6.4 | 0.00 | 0.00 | 0.00 | 61 | 1010.0 |
| 20260510104841 | 16 | 215 | 1.6 | 3.2 | 0.00 | 0.00 | 0.00 | 60 | 1009.9 |
| 20260510104338 | 16 | 227 | 0.0 | 3.2 | 0.00 | 0.00 | 0.00 | 59 | 1009.8 |
| 20260510103834 | 16 | 6 | 0.0 | 3.2 | 0.00 | 0.00 | 0.00 | 62 | 1009.6 |
| 20260510103332 | 16 | 301 | 1.6 | 1.6 | 0.00 | 0.00 | 0.00 | 64 | 1009.8 |
| 20260510102827 | 16 | 335 | 3.2 | 3.2 | 0.00 | 0.00 | 0.00 | 66 | 1009.8 |
| 20260510102323 | 16 | 290 | 0.0 | 1.6 | 0.00 | 0.00 | 0.00 | 63 | 1009.9 |
| 20260510101820 | 16 | 89 | 0.0 | 1.6 | 0.00 | 0.00 | 0.00 | 61 | 1009.7 |
| 20260510101318 | 16 | 52 | 0.0 | 3.2 | 0.00 | 0.00 | 0.00 | 62 | 1009.9 |
| 20260510100814 | 16 | 4 | 4.8 | 4.8 | 0.00 | 0.00 | 0.00 | 64 | 1009.7 |
| 20260510100312 | 14 | 324 | 3.2 | 12.9 | 0.00 | 0.00 | 0.00 | 73 | 1009.7 |
| 20260510095807 | 14 | 41 | 0.0 | 1.6 | 0.00 | 0.00 | 0.00 | 79 | 1009.3 |
| 20260510095305 | 14 | 145 | 0.0 | 1.6 | 0.00 | 0.00 | 0.00 | 78 | 1009.3 |
| 20260510094802 | 13 | 341 | 1.6 | 3.2 | 0.00 | 0.00 | 0.00 | 75 | 1009.3 |
| 20260510094258 | 14 | 98 | 0.0 | 0.0 | 0.00 | 0.00 | 0.00 | 77 | 1009.2 |
| 20260510093753 | 14 | 107 | 0.0 | 1.6 | 0.00 | 0.00 | 0.00 | 76 | 1009.3 |
| 20260510093251 | 14 | 226 | 1.6 | 3.2 | 0.00 | 0.00 | 0.00 | 76 | 1009.1 |
| 20260510092747 | 14 | 299 | 0.0 | 3.2 | 0.00 | 0.00 | 0.00 | 74 | 1009.2 |
| 20260510092243 | 14 | 160 | 0.0 | 3.2 | 0.00 | 0.00 | 0.00 | 73 | 1009.0 |
| 20260510091739 | 14 | 198 | 1.6 | 3.2 | 0.00 | 0.00 | 0.00 | 72 | 1009.2 |
| 20260510091236 | 14 | 0 | 1.6 | 1.6 | 0.00 | 0.00 | 0.00 | 73 | 1008.9 |
| 20260510090732 | 14 | 112 | 0.0 | 0.0 | 0.00 | 0.00 | 0.00 | 72 | 1008.9 |
| 20260510090230 | 15 | 318 | 1.6 | 1.6 | 0.00 | 0.00 | 0.00 | 72 | 1009.0 |
| 20260510085725 | 15 | 173 | 0.0 | 1.6 | 0.00 | 0.00 | 0.00 | 70 | 1009.2 |
| 20260510085220 | 15 | 183 | 0.0 | 3.2 | 0.00 | 0.00 | 0.00 | 69 | 1009.2 |
| 20260510084716 | 15 | 37 | 0.0 | 1.6 | 0.00 | 0.00 | 0.00 | 68 | 1009.2 |
| 20260510084213 | 16 | 215 | 0.0 | 1.6 | 0.00 | 0.00 | 0.00 | 65 | 1009.3 |
| 20260510083710 | 16 | 224 | 0.0 | 0.0 | 0.00 | 0.00 | 0.00 | 65 | 1009.4 |
| 20260510083207 | 15 | 272 | 0.0 | 1.6 | 0.00 | 0.00 | 0.00 | 67 | 1009.3 |
| 20260510082702 | 15 | 346 | 0.0 | 1.6 | 0.00 | 0.00 | 0.00 | 69 | 1009.1 |
| 20260510082159 | 15 | 233 | 0.0 | 1.6 | 0.00 | 0.00 | 0.00 | 69 | 1009.1 |
| 20260510081653 | 15 | 322 | 0.0 | 0.0 | 0.00 | 0.00 | 0.00 | 69 | 1009.1 |
| 20260510081149 | 15 | 185 | 1.6 | 3.2 | 0.00 | 0.00 | 0.00 | 68 | 1009.2 |
| 20260510080648 | 15 | 32 | 0.0 | 1.6 | 0.00 | 0.00 | 0.00 | 68 | 1009.2 |
| 20260510080146 | 15 | 130 | 0.0 | 0.0 | 0.00 | 0.00 | 0.00 | 67 | 1008.9 |
| 20260510075642 | 15 | 22 | 0.0 | 3.2 | 0.00 | 0.00 | 0.00 | 65 | 1008.7 |
| 20260510075140 | 16 | 0 | 3.2 | 3.2 | 0.00 | 0.00 | 0.00 | 64 | 1008.7 |
| 20260510074637 | 16 | 193 | 3.2 | 3.2 | 0.00 | 0.00 | 0.00 | 64 | 1008.6 |
| 20260510074132 | 16 | 178 | 1.6 | 3.2 | 0.00 | 0.00 | 0.00 | 62 | 1008.8 |
| 20260510073629 | 16 | 17 | 0.0 | 4.8 | 0.00 | 0.00 | 0.00 | 62 | 1008.8 |
| 20260510073125 | 16 | 356 | 4.8 | 6.4 | 0.00 | 0.00 | 0.00 | 62 | 1008.7 |
| 20260510072622 | 16 | 42 | 0.0 | 3.2 | 0.00 | 0.00 | 0.00 | 62 | 1008.8 |
| 20260510072118 | 16 | 22 | 1.6 | 6.4 | 0.00 | 0.00 | 0.00 | 63 | 1008.6 |
| 20260510071614 | 16 | 133 | 0.0 | 11.3 | 0.00 | 0.00 | 0.00 | 63 | 1008.9 |
| 20260510071112 | 16 | 336 | 4.8 | 6.4 | 0.00 | 0.00 | 0.00 | 64 | 1008.7 |
| 20260510070609 | 16 | 353 | 3.2 | 3.2 | 0.00 | 0.00 | 0.00 | 64 | 1008.7 |
| 20260510070107 | 16 | 30 | 1.6 | 3.2 | 0.00 | 0.00 | 0.00 | 63 | 1008.6 |
| 20260510065602 | 16 | 235 | 0.0 | 6.4 | 0.00 | 0.00 | 0.00 | 64 | 1008.5 |
| 20260510065058 | 16 | 38 | 0.0 | 3.2 | 0.00 | 0.00 | 0.00 | 63 | 1008.6 |
| 20260510064555 | 16 | 249 | 0.0 | 3.2 | 0.00 | 0.00 | 0.00 | 63 | 1008.4 |
| 20260510064052 | 16 | 222 | 0.0 | 1.6 | 0.00 | 0.00 | 0.00 | 61 | 1008.4 |
| 20260510063549 | 16 | 89 | 0.0 | 3.2 | 0.00 | 0.00 | 0.00 | 61 | 1008.5 |
| 20260510063046 | 16 | 0 | 0.0 | 1.6 | 0.00 | 0.00 | 0.00 | 60 | 1008.6 |
| 20260510062542 | 17 | 159 | 1.6 | 4.8 | 0.00 | 0.00 | 0.00 | 60 | 1008.4 |
| 20260510062037 | 17 | 243 | 3.2 | 3.2 | 0.00 | 0.00 | 0.00 | 60 | 1008.6 |
| 20260510061534 | 17 | 190 | 3.2 | 3.2 | 0.00 | 0.00 | 0.00 | 59 | 1008.7 |
| 20260510061030 | 17 | 243 | 3.2 | 6.4 | 0.00 | 0.00 | 0.00 | 58 | 1008.7 |
| 20260510060527 | 17 | 252 | 6.4 | 6.4 | 0.00 | 0.00 | 0.00 | 59 | 1008.9 |
| 20260510060023 | 17 | 243 | 3.2 | 4.8 | 0.00 | 0.00 | 0.00 | 59 | 1008.7 |
| 20260510055519 | 17 | 214 | 0.0 | 4.8 | 0.00 | 0.00 | 0.00 | 59 | 1008.7 |
| 20260510055018 | 16 | 263 | 1.6 | 6.4 | 0.00 | 0.00 | 0.00 | 59 | 1008.6 |
| 20260510054513 | 16 | 129 | 0.0 | 1.6 | 0.00 | 0.00 | 0.00 | 59 | 1008.5 |
| 20260510054003 | 16 | 166 | 0.0 | 3.2 | 0.00 | 0.00 | 0.00 | 59 | 1008.5 |
| 20260510053502 | 16 | 241 | 0.0 | 3.2 | 0.00 | 0.00 | 0.00 | 60 | 1008.4 |
| 20260510053000 | 16 | 200 | 1.6 | 3.2 | 0.00 | 0.00 | 0.00 | 60 | 1008.7 |
| 20260510052456 | 16 | 19 | 1.6 | 3.2 | 0.00 | 0.00 | 0.00 | 59 | 1008.3 |
| 20260510051953 | 17 | 40 | 3.2 | 3.2 | 0.00 | 0.00 | 0.00 | 58 | 1008.8 |
| 20260510051448 | 17 | 289 | 0.0 | 1.6 | 0.00 | 0.00 | 0.00 | 57 | 1008.8 |
| 20260510050944 | 17 | 210 | 0.0 | 0.0 | 0.00 | 0.00 | 0.00 | 57 | 1008.8 |
| 20260510050442 | 17 | 204 | 3.2 | 3.2 | 0.00 | 0.00 | 0.00 | 57 | 1008.6 |
| 20260510045939 | 17 | 239 | 1.6 | 4.8 | 0.00 | 0.00 | 0.00 | 58 | 1008.6 |
| 20260510045436 | 17 | 207 | 4.8 | 6.4 | 0.00 | 0.00 | 0.00 | 59 | 1008.4 |
| 20260510044933 | 16 | 230 | 3.2 | 6.4 | 0.00 | 0.00 | 0.00 | 58 | 1008.3 |
| 20260510044430 | 16 | 209 | 1.6 | 4.8 | 0.00 | 0.00 | 0.00 | 60 | 1008.1 |
| 20260510043926 | 16 | 174 | 0.0 | 1.6 | 0.00 | 0.00 | 0.00 | 60 | 1008.1 |
| 20260510043422 | 16 | 10 | 0.0 | 0.0 | 0.00 | 0.00 | 0.00 | 60 | 1008.1 |
| 20260510042921 | 16 | 193 | 0.0 | 3.2 | 0.00 | 0.00 | 0.00 | 62 | 1008.1 |
| 20260510042416 | 15 | 203 | 0.0 | 1.6 | 0.00 | 0.00 | 0.00 | 61 | 1008.1 |
| 20260510041912 | 15 | 309 | 0.0 | 1.6 | 0.00 | 0.00 | 0.00 | 64 | 1008.1 |
| 20260510041409 | 15 | 69 | 0.0 | 0.0 | 0.00 | 0.00 | 0.00 | 65 | 1008.0 |
| 20260510040907 | 15 | 6 | 0.0 | 1.6 | 0.00 | 0.00 | 0.00 | 66 | 1008.1 |
| 20260510040404 | 15 | 23 | 1.6 | 3.2 | 0.00 | 0.00 | 0.00 | 63 | 1008.4 |
| 20260510035859 | 16 | 121 | 0.0 | 3.2 | 0.00 | 0.00 | 0.00 | 67 | 1008.1 |
| 20260510035355 | 16 | 235 | 0.0 | 3.2 | 0.00 | 0.00 | 0.00 | 64 | 1008.0 |
| 20260510034851 | 15 | 297 | 0.0 | 3.2 | 0.00 | 0.00 | 0.00 | 64 | 1007.8 |
| 20260510034349 | 15 | 217 | 0.0 | 0.0 | 0.00 | 0.00 | 0.00 | 65 | 1007.8 |
| 20260510033845 | 15 | 193 | 0.0 | 1.6 | 0.00 | 0.00 | 0.00 | 63 | 1007.5 |
| 20260510033342 | 15 | 336 | 0.0 | 0.0 | 0.00 | 0.00 | 0.00 | 63 | 1007.6 |
| 20260510032838 | 16 | 336 | 0.0 | 0.0 | 0.00 | 0.00 | 0.00 | 63 | 1007.7 |
| 20260510032335 | 16 | 180 | 0.0 | 0.0 | 0.00 | 0.00 | 0.00 | 64 | 1007.7 |
| 20260510031831 | 16 | 315 | 0.0 | 0.0 | 0.00 | 0.00 | 0.00 | 64 | 1007.7 |
| 20260510031327 | 16 | 315 | 0.0 | 0.0 | 0.00 | 0.00 | 0.00 | 64 | 1007.6 |
| 20260510030826 | 16 | 315 | 0.0 | 0.0 | 0.00 | 0.00 | 0.00 | 63 | 1007.6 |
| 20260510030323 | 16 | 315 | 0.0 | 0.0 | 0.00 | 0.00 | 0.00 | 64 | 1007.5 |
| 20260510025820 | 16 | 230 | 0.0 | 0.0 | 0.00 | 0.00 | 0.00 | 64 | 1007.5 |
| 20260510025318 | 16 | 336 | 0.0 | 0.0 | 0.00 | 0.00 | 0.00 | 65 | 1007.4 |
| 20260510024814 | 16 | 336 | 0.0 | 0.0 | 0.00 | 0.00 | 0.00 | 64 | 1007.3 |
| 20260510024311 | 16 | 336 | 0.0 | 0.0 | 0.00 | 0.00 | 0.00 | 64 | 1007.2 |
| 20260510023808 | 16 | 324 | 0.0 | 1.6 | 0.00 | 0.00 | 0.00 | 65 | 1007.2 |
| 20260510023304 | 16 | 230 | 0.0 | 0.0 | 0.00 | 0.00 | 0.00 | 65 | 1007.0 |
| 20260510022801 | 16 | 221 | 0.0 | 1.6 | 0.00 | 0.00 | 0.00 | 64 | 1007.1 |
| 20260510022300 | 16 | 243 | 0.0 | 0.0 | 0.00 | 0.00 | 0.00 | 65 | 1006.9 |
| 20260510021800 | 16 | 235 | 0.0 | 0.0 | 0.00 | 0.00 | 0.00 | 67 | 1006.8 |
| 20260510021258 | 16 | 199 | 1.6 | 1.6 | 0.00 | 0.00 | 0.00 | 62 | 1006.7 |
| 20260510020754 | 17 | 44 | 0.0 | 0.0 | 0.00 | 0.00 | 0.00 | 61 | 1006.7 |
| 20260510020254 | 17 | 336 | 0.0 | 0.0 | 0.00 | 0.00 | 0.00 | 60 | 1006.5 |
| 20260510015750 | 17 | 218 | 0.0 | 3.2 | 0.00 | 0.00 | 0.00 | 60 | 1006.5 |
| 20260510015247 | 17 | 212 | 0.0 | 0.0 | 0.00 | 0.00 | 0.00 | 59 | 1006.4 |
| 20260510014741 | 17 | 212 | 0.0 | 0.0 | 0.00 | 0.00 | 0.00 | 58 | 1006.2 |
| 20260510014239 | 17 | 37 | 0.0 | 0.0 | 0.00 | 0.00 | 0.00 | 58 | 1006.3 |
| 20260510013735 | 18 | 37 | 0.0 | 0.0 | 0.00 | 0.00 | 0.00 | 57 | 1006.2 |
| 20260510013230 | 18 | 256 | 0.0 | 0.0 | 0.00 | 0.00 | 0.00 | 56 | 1006.1 |
| 20260510012725 | 18 | 256 | 0.0 | 0.0 | 0.00 | 0.00 | 0.00 | 56 | 1006.2 |
| 20260510012220 | 18 | 322 | 0.0 | 0.0 | 0.00 | 0.00 | 0.00 | 57 | 1006.1 |
| 20260510011720 | 18 | 37 | 0.0 | 0.0 | 0.00 | 0.00 | 0.00 | 56 | 1005.9 |
| 20260510011216 | 19 | 13 | 0.0 | 0.0 | 0.00 | 0.00 | 0.00 | 54 | 1006.0 |
| 20260510010713 | 19 | 5 | 0.0 | 3.2 | 0.00 | 0.00 | 0.00 | 53 | 1005.7 |
| 20260510010209 | 20 | 186 | 0.0 | 0.0 | 0.00 | 0.00 | 0.00 | 53 | 1005.9 |
| 20260510005706 | 20 | 230 | 0.0 | 0.0 | 0.00 | 0.00 | 0.00 | 55 | 1005.9 |
| 20260510005203 | 20 | 352 | 0.0 | 3.2 | 0.00 | 0.00 | 0.00 | 57 | 1005.7 |
| 20260510004702 | 20 | 6 | 3.2 | 3.2 | 0.00 | 0.00 | 0.00 | 56 | 1005.6 |
| 20260510004159 | 20 | 189 | 0.0 | 3.2 | 0.00 | 0.00 | 0.00 | 62 | 1005.4 |
| 20260510003656 | 21 | 164 | 0.0 | 0.0 | 0.00 | 0.00 | 0.00 | 52 | 1005.6 |
| 20260510003152 | 22 | 164 | 0.0 | 0.0 | 0.00 | 0.00 | 0.00 | 46 | 1005.6 |
| 20260510002651 | 22 | 235 | 0.0 | 0.0 | 0.00 | 0.00 | 0.00 | 44 | 1005.4 |
| 20260510002149 | 22 | 256 | 0.0 | 1.6 | 0.00 | 0.00 | 0.00 | 42 | 1005.6 |
| 20260510001646 | 23 | 217 | 0.0 | 0.0 | 0.00 | 0.00 | 0.00 | 39 | 1005.6 |
| 20260510001144 | 24 | 210 | 0.0 | 1.6 | 0.00 | 0.00 | 0.00 | 36 | 1005.3 |
| 20260510000644 | 25 | 50 | 0.0 | 0.0 | 0.00 | 0.00 | 0.00 | 40 | 1005.6 |
| 20260510000142 | 27 | 185 | 0.0 | 0.0 | 0.00 | 0.00 | 0.00 | 32 | 1005.3 |
| 20260509235638 | 27 | 124 | 0.0 | 0.0 | 0.00 | 0.00 | 0.00 | 31 | 1005.4 |
| 20260509235135 | 27 | 242 | 0.0 | 0.0 | 0.00 | 0.00 | 0.00 | 27 | 1005.3 |
| 20260509234631 | 28 | 256 | 0.0 | 1.6 | 0.00 | 0.00 | 0.00 | 26 | 1005.4 |
| 20260509234129 | 28 | 129 | 0.0 | 1.6 | 0.00 | 0.00 | 0.00 | 25 | 1005.1 |
| 20260509233626 | 28 | 218 | 0.0 | 3.2 | 0.00 | 0.00 | 0.00 | 29 | 1005.3 |
| 20260509233124 | 27 | 352 | 0.0 | 1.6 | 0.00 | 0.00 | 0.00 | 26 | 1005.3 |
| 20260509232620 | 27 | 297 | 1.6 | 4.8 | 0.00 | 0.00 | 0.00 | 28 | 1005.3 |
| 20260509232117 | 27 | 330 | 1.6 | 4.8 | 0.00 | 0.00 | 0.00 | 27 | 1005.3 |
| 20260509231613 | 29 | 44 | 0.0 | 1.6 | 0.00 | 0.00 | 0.00 | 24 | 1005.2 |
| 20260509231111 | 29 | 243 | 0.0 | 3.2 | 0.00 | 0.00 | 0.00 | 29 | 1005.2 |
| 20260509230608 | 28 | 278 | 3.2 | 8.0 | 0.00 | 0.00 | 0.00 | 25 | 1005.4 |
| 20260509230105 | 27 | 220 | 3.2 | 6.4 | 0.00 | 0.00 | 0.00 | 24 | 1005.4 |
| 20260509225600 | 28 | 286 | 1.6 | 6.4 | 0.00 | 0.00 | 0.00 | 23 | 1005.3 |
| 20260509225056 | 28 | 225 | 3.2 | 4.8 | 0.00 | 0.00 | 0.00 | 27 | 1005.3 |
| 20260509224551 | 28 | 263 | 3.2 | 8.0 | 0.00 | 0.00 | 0.00 | 27 | 1005.2 |
| 20260509224049 | 27 | 239 | 4.8 | 6.4 | 0.00 | 0.00 | 0.00 | 27 | 1005.2 |
| 20260509223546 | 27 | 275 | 4.8 | 8.0 | 0.00 | 0.00 | 0.00 | 26 | 1005.1 |
| 20260509223044 | 27 | 255 | 4.8 | 6.4 | 0.00 | 0.00 | 0.00 | 33 | 1005.1 |
| 20260509222539 | 27 | 223 | 6.4 | 9.7 | 0.00 | 0.00 | 0.00 | 24 | 1005.2 |
| 20260509222036 | 27 | 271 | 6.4 | 9.7 | 0.00 | 0.00 | 0.00 | 25 | 1005.2 |
| 20260509221531 | 27 | 332 | 8.0 | 8.0 | 0.00 | 0.00 | 0.00 | 26 | 1005.1 |
| 20260509221027 | 27 | 217 | 6.4 | 11.3 | 0.00 | 0.00 | 0.00 | 22 | 1005.1 |
| 20260509220523 | 27 | 219 | 6.4 | 14.5 | 0.00 | 0.00 | 0.00 | 23 | 1005.0 |
| 20260509220020 | 27 | 209 | 3.2 | 6.4 | 0.00 | 0.00 | 0.00 | 26 | 1005.1 |
| 20260509215515 | 26 | 325 | 4.8 | 8.0 | 0.00 | 0.00 | 0.00 | 25 | 1005.2 |
| 20260509215013 | 27 | 315 | 12.9 | 12.9 | 0.00 | 0.00 | 0.00 | 26 | 1005.0 |
| 20260509214510 | 27 | 308 | 8.0 | 14.5 | 0.00 | 0.00 | 0.00 | 24 | 1005.1 |
| 20260509214007 | 27 | 309 | 6.4 | 11.3 | 0.00 | 0.00 | 0.00 | 28 | 1005.2 |
| 20260509213502 | 27 | 286 | 4.8 | 6.4 | 0.00 | 0.00 | 0.00 | 25 | 1005.2 |
| 20260509213000 | 27 | 213 | 3.2 | 3.2 | 0.00 | 0.00 | 0.00 | 26 | 1005.1 |
| 20260509212457 | 26 | 234 | 4.8 | 9.7 | 0.00 | 0.00 | 0.00 | 26 | 1004.9 |
| 20260509211953 | 26 | 317 | 8.0 | 11.3 | 0.00 | 0.00 | 0.00 | 25 | 1005.1 |
| 20260509211449 | 26 | 348 | 9.7 | 12.9 | 0.00 | 0.00 | 0.00 | 24 | 1005.2 |
| 20260509210945 | 26 | 311 | 9.7 | 12.9 | 0.00 | 0.00 | 0.00 | 26 | 1005.0 |
| 20260509210442 | 27 | 345 | 4.8 | 11.3 | 0.00 | 0.00 | 0.00 | 25 | 1005.2 |
| 20260509205938 | 27 | 273 | 4.8 | 14.5 | 0.00 | 0.00 | 0.00 | 25 | 1005.2 |
| 20260509205433 | 27 | 261 | 6.4 | 8.0 | 0.00 | 0.00 | 0.00 | 26 | 1005.3 |
| 20260509204929 | 27 | 210 | 4.8 | 8.0 | 0.00 | 0.00 | 0.00 | 24 | 1005.4 |
| 20260509204425 | 27 | 238 | 4.8 | 9.7 | 0.00 | 0.00 | 0.00 | 28 | 1005.3 |
| 20260509203922 | 27 | 234 | 9.7 | 17.7 | 0.00 | 0.00 | 0.00 | 27 | 1005.4 |
| 20260509203418 | 27 | 242 | 4.8 | 9.7 | 0.00 | 0.00 | 0.00 | 30 | 1005.6 |
| 20260509202916 | 26 | 239 | 3.2 | 12.9 | 0.00 | 0.00 | 0.00 | 26 | 1005.8 |
| 20260509202411 | 26 | 324 | 4.8 | 14.5 | 0.00 | 0.00 | 0.00 | 24 | 1005.7 |
| 20260509201906 | 26 | 289 | 6.4 | 12.9 | 0.00 | 0.00 | 0.00 | 25 | 1005.8 |
| 20260509201402 | 26 | 272 | 6.4 | 12.9 | 0.00 | 0.00 | 0.00 | 24 | 1005.8 |
| 20260509200900 | 27 | 276 | 6.4 | 19.3 | 0.00 | 0.00 | 0.00 | 27 | 1006.0 |
| 20260509200359 | 27 | 240 | 6.4 | 11.3 | 0.00 | 0.00 | 0.00 | 30 | 1005.9 |
| 20260509195857 | 27 | 353 | 4.8 | 8.0 | 0.00 | 0.00 | 0.00 | 27 | 1005.9 |
| 20260509195356 | 26 | 187 | 3.2 | 9.7 | 0.00 | 0.00 | 0.00 | 28 | 1005.8 |
| 20260509194856 | 26 | 325 | 9.7 | 9.7 | 0.00 | 0.00 | 0.00 | 26 | 1006.1 |
| 20260509194353 | 26 | 247 | 1.6 | 4.8 | 0.00 | 0.00 | 0.00 | 27 | 1006.1 |
| 20260509193849 | 26 | 211 | 6.4 | 11.3 | 0.00 | 0.00 | 0.00 | 26 | 1006.1 |
| 20260509193350 | 27 | 232 | 17.7 | 17.7 | 0.00 | 0.00 | 0.00 | 28 | 1006.2 |
| 20260509192846 | 26 | 267 | 3.2 | 11.3 | 0.00 | 0.00 | 0.00 | 27 | 1006.1 |
| 20260509192342 | 26 | 256 | 1.6 | 4.8 | 0.00 | 0.00 | 0.00 | 29 | 1006.0 |
| 20260509191838 | 26 | 312 | 6.4 | 14.5 | 0.00 | 0.00 | 0.00 | 35 | 1006.2 |
| 20260509191333 | 26 | 231 | 11.3 | 16.1 | 0.00 | 0.00 | 0.00 | 27 | 1005.9 |
| 20260509190830 | 26 | 232 | 6.4 | 12.9 | 0.00 | 0.00 | 0.00 | 28 | 1006.2 |
| 20260509190327 | 26 | 308 | 19.3 | 19.3 | 0.00 | 0.00 | 0.00 | 28 | 1006.2 |
| 20260509185824 | 26 | 278 | 3.2 | 12.9 | 0.00 | 0.00 | 0.00 | 34 | 1006.2 |
| 20260509185320 | 26 | 265 | 3.2 | 9.7 | 0.00 | 0.00 | 0.00 | 27 | 1005.9 |
| 20260509184818 | 26 | 256 | 6.4 | 11.3 | 0.00 | 0.00 | 0.00 | 32 | 1006.0 |
| 20260509184315 | 26 | 205 | 3.2 | 24.1 | 0.00 | 0.00 | 0.00 | 32 | 1006.1 |
| 20260509183812 | 26 | 233 | 9.7 | 14.5 | 0.00 | 0.00 | 0.00 | 28 | 1006.1 |
| 20260509183307 | 26 | 295 | 8.0 | 8.0 | 0.00 | 0.00 | 0.00 | 33 | 1006.1 |
| 20260509182803 | 26 | 248 | 6.4 | 12.9 | 0.00 | 0.00 | 0.00 | 25 | 1006.1 |
| 20260509182300 | 26 | 260 | 8.0 | 9.7 | 0.00 | 0.00 | 0.00 | 34 | 1006.3 |
| 20260509181757 | 26 | 293 | 4.8 | 9.7 | 0.00 | 0.00 | 0.00 | 31 | 1006.0 |
| 20260509181254 | 26 | 297 | 8.0 | 19.3 | 0.00 | 0.00 | 0.00 | 25 | 1005.9 |
| 20260509180752 | 26 | 273 | 1.6 | 6.4 | 0.00 | 0.00 | 0.00 | 28 | 1006.1 |
| 20260509180248 | 26 | 222 | 11.3 | 14.5 | 0.00 | 0.00 | 0.00 | 27 | 1006.0 |
| 20260509175744 | 26 | 238 | 4.8 | 12.9 | 0.00 | 0.00 | 0.00 | 27 | 1006.1 |
| 20260509175241 | 25 | 287 | 6.4 | 8.0 | 0.00 | 0.00 | 0.00 | 31 | 1006.2 |
| 20260509174737 | 25 | 209 | 6.4 | 19.3 | 0.00 | 0.00 | 0.00 | 28 | 1006.2 |
| 20260509174232 | 25 | 244 | 14.5 | 17.7 | 0.00 | 0.00 | 0.00 | 26 | 1006.1 |
| 20260509173729 | 25 | 318 | 8.0 | 9.7 | 0.00 | 0.00 | 0.00 | 29 | 1006.0 |
| 20260509173224 | 25 | 291 | 9.7 | 14.5 | 0.00 | 0.00 | 0.00 | 31 | 1006.3 |
| 20260509172721 | 25 | 283 | 3.2 | 8.0 | 0.00 | 0.00 | 0.00 | 30 | 1006.3 |
| 20260509172217 | 25 | 1 | 1.6 | 9.7 | 0.00 | 0.00 | 0.00 | 34 | 1006.3 |
| 20260509171713 | 25 | 265 | 6.4 | 9.7 | 0.00 | 0.00 | 0.00 | 32 | 1006.3 |
| 20260509171209 | 25 | 198 | 6.4 | 9.7 | 0.00 | 0.00 | 0.00 | 36 | 1006.3 |
| 20260509170706 | 25 | 253 | 4.8 | 12.9 | 0.00 | 0.00 | 0.00 | 33 | 1006.3 |
| 20260509170202 | 25 | 207 | 4.8 | 12.9 | 0.00 | 0.00 | 0.00 | 39 | 1006.3 |
| 20260509165701 | 25 | 211 | 6.4 | 9.7 | 0.00 | 0.00 | 0.00 | 35 | 1006.3 |
| 20260509165156 | 24 | 328 | 8.0 | 9.7 | 0.00 | 0.00 | 0.00 | 34 | 1006.5 |
| 20260509164652 | 24 | 333 | 3.2 | 11.3 | 0.00 | 0.00 | 0.00 | 40 | 1006.3 |
| 20260509164148 | 25 | 194 | 9.7 | 11.3 | 0.00 | 0.00 | 0.00 | 44 | 1006.3 |
| 20260509163646 | 24 | 199 | 14.5 | 16.1 | 0.00 | 0.00 | 0.00 | 40 | 1006.2 |
| 20260509163142 | 24 | 203 | 3.2 | 11.3 | 0.00 | 0.00 | 0.00 | 48 | 1006.4 |
| 20260509162639 | 24 | 198 | 12.9 | 16.1 | 0.00 | 0.00 | 0.00 | 42 | 1006.3 |
| 20260509162134 | 25 | 181 | 3.2 | 8.0 | 0.00 | 0.00 | 0.00 | 46 | 1006.4 |
| 20260509161631 | 24 | 219 | 6.4 | 9.7 | 0.00 | 0.00 | 0.00 | 43 | 1006.5 |
| 20260509161126 | 23 | 221 | 3.2 | 6.4 | 0.00 | 0.00 | 0.00 | 40 | 1006.4 |
| 20260509160622 | 23 | 222 | 14.5 | 16.1 | 0.00 | 0.00 | 0.00 | 45 | 1006.3 |
| 20260509160118 | 23 | 189 | 8.0 | 14.5 | 0.00 | 0.00 | 0.00 | 44 | 1006.3 |
| 20260509155614 | 23 | 238 | 6.4 | 16.1 | 0.00 | 0.00 | 0.00 | 44 | 1006.3 |
| 20260509155110 | 23 | 211 | 4.8 | 11.3 | 0.00 | 0.00 | 0.00 | 41 | 1006.3 |
| 20260509154606 | 23 | 240 | 12.9 | 14.5 | 0.00 | 0.00 | 0.00 | 44 | 1006.4 |
| 20260509154104 | 23 | 215 | 6.4 | 8.0 | 0.00 | 0.00 | 0.00 | 48 | 1006.4 |
| 20260509153601 | 23 | 234 | 4.8 | 6.4 | 0.00 | 0.00 | 0.00 | 48 | 1006.4 |
| 20260509153058 | 23 | 240 | 4.8 | 8.0 | 0.00 | 0.00 | 0.00 | 48 | 1006.4 |
| 20260509152553 | 22 | 294 | 3.2 | 8.0 | 0.00 | 0.00 | 0.00 | 47 | 1006.5 |
| 20260509152051 | 23 | 210 | 8.0 | 11.3 | 0.00 | 0.00 | 0.00 | 46 | 1006.3 |
| 20260509151547 | 23 | 17 | 0.0 | 8.0 | 0.00 | 0.00 | 0.00 | 46 | 1006.4 |
| 20260509151045 | 23 | 219 | 1.6 | 9.7 | 0.00 | 0.00 | 0.00 | 49 | 1006.2 |
| 20260509150542 | 23 | 215 | 9.7 | 9.7 | 0.00 | 0.00 | 0.00 | 51 | 1006.4 |
| 20260509150041 | 22 | 225 | 4.8 | 8.0 | 0.00 | 0.00 | 0.00 | 58 | 1006.2 |
| 20260509145536 | 22 | 225 | 3.2 | 8.0 | 0.00 | 0.00 | 0.00 | 55 | 1006.2 |
| 20260509145031 | 22 | 296 | 0.0 | 6.4 | 0.00 | 0.00 | 0.00 | 53 | 1006.2 |
| 20260509144528 | 21 | 245 | 3.2 | 9.7 | 0.00 | 0.00 | 0.00 | 55 | 1006.4 |
| 20260509144026 | 21 | 331 | 9.7 | 9.7 | 0.00 | 0.00 | 0.00 | 54 | 1006.3 |
| 20260509143522 | 21 | 226 | 3.2 | 11.3 | 0.00 | 0.00 | 0.00 | 59 | 1006.2 |
| 20260509143020 | 21 | 260 | 1.6 | 6.4 | 0.00 | 0.00 | 0.00 | 57 | 1006.2 |
| 20260509142515 | 21 | 220 | 3.2 | 6.4 | 0.00 | 0.00 | 0.00 | 61 | 1006.2 |